Location: Vancouver
(49.2500°N, 123.1330°W)
Time: 12:19:29
(UTC-08:00)

Cosmos 676 Rocket - Visible Passes

Search period start: 04 December 2016 00:00
Search period end: 14 December 2016 00:00
Orbit: 755 x 784 km, 74.0° (Epoch: 04 December)

Date Brightness Start Highest point End Pass type
(mag) Time Alt. Az. Time Alt. Az. Time Alt. Az.
04 Dec 5.7 18:24:01 10° N 18:25:53 17° NNE 18:25:53 17° NNE visible
04 Dec 6.5 20:05:28 10° NNW 20:06:12 14° NNW 20:06:12 14° NNW visible
05 Dec 5.7 17:47:59 10° N 17:50:19 15° NNE 17:50:19 15° NNE visible
05 Dec 5.8 19:28:53 10° NNW 19:30:39 21° NNW 19:30:39 21° NNW visible
06 Dec 5.9 17:12:37 10° NNE 17:13:54 11° NE 17:14:51 10° NE visible
06 Dec 5.2 18:52:24 10° NNW 18:55:11 29° N 18:55:11 29° N visible
06 Dec 6.7 20:34:54 10° NW 20:35:31 13° NW 20:35:31 13° NW visible
07 Dec 4.9 18:16:02 10° N 18:19:51 29° NE 18:19:51 29° NE visible
07 Dec 5.9 19:57:59 10° NNW 20:00:11 24° NW 20:00:11 24° NW visible
08 Dec 5.1 17:39:48 10° N 17:43:47 21° NE 17:44:43 21° ENE visible
08 Dec 4.7 19:21:15 10° NNW 19:25:04 48° NW 19:25:04 48° NW visible
09 Dec 5.5 17:03:46 10° N 17:06:48 15° NE 17:09:48 10° ENE visible
09 Dec 3.8 18:44:40 10° NNW 18:49:54 72° ENE 18:50:14 69° E visible
09 Dec 6.5 20:27:57 10° NW 20:30:38 17° W 20:30:38 17° W visible
10 Dec 4.2 18:08:11 10° NNW 18:13:13 46° ENE 18:15:57 25° ESE visible
10 Dec 5.8 19:50:41 10° NW 19:55:06 28° W 19:56:23 25° SW visible
11 Dec 4.7 17:31:49 10° N 17:36:27 31° NE 17:41:02 10° ESE visible
11 Dec 5.0 19:13:46 10° NW 19:18:43 45° WSW 19:23:37 10° S visible
12 Dec 5.1 16:55:34 10° N 16:59:34 22° NE 17:03:32 10° E visible
12 Dec 4.1 18:37:02 10° NNW 18:42:15 73° WSW 18:47:23 10° SSE visible
12 Dec 7.1 20:22:20 10° W 20:23:20 10° W 20:24:19 10° WSW visible
13 Dec 3.9 18:00:27 10° NNW 18:05:40 73° ENE 18:10:51 10° SSE visible
13 Dec 6.6 19:43:46 10° NW 19:47:09 18° W 19:50:31 10° SW visible
